Weather in Kilkis

Greece     40°59′46″N   22°52′35″E
temp.,
°C
wind,
m/s
gust,
m/s
humid.,
%
clouds,
%
prec.,
mm/h
press.,
hPa
HPBL,
m
17 april, sat
sat1700:00+8nne2291100 1.3 101884
03:00+8e2289100 1.3 101757
06:00+8ene2289100 0.0 101659
09:00+10e2376100 0.0 1016470
12:00+13ese346493 0.0 10151211
15:00+14se3463100 0.1 10131204
18:00+13s2468100 0.0 1011688
21:00+9wsw118771 0.0 101324
18 april, sun
sun1800:00+8se119236 0.0 101310
03:00+8e118758 0.0 101313
06:00+8ese1188100 0.0 101319
09:00+11e118099 0.0 1013326
12:00+13wsw1274100 0.0 1013714
15:00+14wsw2271100 0.1 1013835
18:00+15sw227075 0.1 1013803
21:00+11sw2293100 0.4 101426
19 april, mon
mon1900:00+10w1199100 2.4 101445
03:00+10nne1197100 4.4 101376
06:00+10w1198100 1.3 101237
09:00+11nw129281 2.6 1011255
12:00+15nw33651 1.1 1009913
15:00+16nw555560 1.9 10071441
18:00+14wsw6665100 1.1 1006733
21:00+8wnw2996100 6.6 1008416
20 april, tue
tue2000:00+8wnw41288100 2.1 1009666
03:00+8nw3885100 2.3 1010344
06:00+6wnw2385100 0.0 101147
09:00+10nw38720 0.0 1012463
12:00+14wnw55515 0.0 10131433
15:00+15wnw355086 0.1 10121723
18:00+14sw456241 0.9 1012855
21:00+9sse228130 1.6 101413
21 april, wed
wed2100:00+8s11800 0.0 101510
03:00+7n11870 0.1 101610
06:00+6nw11840 0.0 101710
09:00+10nnw23735 0.0 1018227
12:00+15wnw33494 0.0 10181208
15:00+17w33390 0.0 10181603
18:00+16w22431 0.0 10171372
21:00+10ssw11613 0.0 101911